Weather History for Sao Paulo, Brazil

Change the Weather History Date:

Friday, February 8, 2013

  Actual Average Record
Temperature  
Mean Temperature 72 °F -  
Max Temperature 79 °F 81 °F 93 °F (2014)
Min Temperature 66 °F 66 °F 60 °F (2004)
Cooling Degree Days 8    
Growing Degree Days 22 (Base 50)    
Moisture  
Dew Point 62 °F    
Average Humidity 73    
Maximum Humidity 88    
Minimum Humidity 47    
Precipitation  
Precipitation 0.67 in - - ()
Sea Level Pressure  
Sea Level Pressure 30.08 in    
Wind  
Wind Speed 6 mph ()    
Max Wind Speed 21 mph    
Max Gust Speed 34 mph    
Visibility 6.1 miles    
Events Rain , Thunderstorm    
Averages and records for this station are not official NWS values.
T = Trace of Precipitation, MM = Missing Value Source: Averaged Metar Reports

Daily Weather History Graph

Daily Weather History Graph

Search for Another Location

Airport:

Trip Planner

Search our weather history database for the weather conditions in past years. The results will help you decide how hot, cold, wet, or windy it might be!

Date:

Astronomy

Feb. 08, 2013 Rise Set
Actual Time 6:50 AM BRST 7:51 PM BRST
Civil Twilight 6:26 AM BRST 8:14 PM BRST
Nautical Twilight 5:58 AM BRST 8:42 PM BRST
Astronomical Twilight 5:29 AM BRST 9:11 PM BRST
Moon 4:56 AM BRST (2/8) 6:24 PM BRST (2/8)
Length of Visible Light 13h 48m
Length of Day
13h 00m
Waning Crescent, 4% of the Moon is Illuminated
Feb 8
Waning Crescent
Feb 10
New
Feb 17
First Quarter
Feb 25
Full
Mar 4
Last Quarter

Hourly Weather History & Observations

Time (BRST) Temp. Dew Point Humidity Pressure Visibility Wind Dir Wind Speed Gust Speed Precip Events Conditions
12:00 AM 68.0 °F 60.8 °F 78% 30.09 in 6.2 mi East 8.1 mph - N/A   Partly Cloudy
1:00 AM 68.0 °F 60.8 °F 78% 30.09 in 6.2 mi East 8.1 mph - N/A   Mostly Cloudy
2:00 AM 68.0 °F 62.6 °F 83% 30.09 in 6.2 mi NE 3.5 mph - N/A   Mostly Cloudy
3:00 AM 68.0 °F 62.6 °F 83% 30.06 in 3.7 mi NNE 6.9 mph - N/A Rain Light Rain
4:00 AM 67 °F 62 °F 79%  in 12 mi NNE 6.9 mph - - Rain Light Rain
4:00 AM 68.0 °F 62.6 °F 83% 30.06 in 6.2 mi NNE 6.9 mph - N/A Rain Light Rain
5:00 AM 68.0 °F 62.6 °F 83% 30.04 in 6.2 mi North 3.5 mph - N/A Rain Light Rain
6:00 AM 68.0 °F 60.8 °F 78% 30.04 in - North 6.9 mph - N/A   Clear
7:00 AM 68.0 °F 59.0 °F 73% 30.04 in - North 4.6 mph - N/A   Clear
8:00 AM 68.0 °F 60.8 °F 78% 30.06 in - NNE 5.8 mph - N/A   Clear
9:00 AM 68.0 °F 62.6 °F 83% 30.06 in 5.6 mi NE 6.9 mph - N/A   Mostly Cloudy
10:00 AM 73 °F 61 °F 58%  in 12 mi NNE 6.9 mph - -   Mostly Cloudy
10:00 AM 73.4 °F 60.8 °F 65% 30.09 in - NNE 6.9 mph - N/A   Clear
11:00 AM 75.2 °F 60.8 °F 61% 30.09 in - NNE 6.9 mph - N/A   Clear
12:00 PM 78.8 °F 59.0 °F 51% 30.09 in 6.2 mi North 10.4 mph - N/A   Partly Cloudy
1:00 PM 78.8 °F 60.8 °F 54% 30.09 in 6.2 mi North 9.2 mph - N/A   Mostly Cloudy
2:00 PM 78.8 °F 60.8 °F 54% 30.09 in 6.2 mi North 6.9 mph - N/A   Mostly Cloudy
3:00 PM 78.8 °F 60.8 °F 54% 30.06 in 6.2 mi North 8.1 mph - N/A   Mostly Cloudy
4:00 PM 79 °F 62 °F 47%  in 12 mi West 6.9 mph - -   Mostly Cloudy
4:00 PM 78.8 °F 62.6 °F 57% 30.04 in 6.2 mi West 6.9 mph - N/A   Mostly Cloudy
5:00 PM 78.8 °F 62.6 °F 57% 30.04 in 6.2 mi WSW 9.2 mph - N/A   Mostly Cloudy
5:32 PM - 59.0 °F N/A% 30.09 in 5.0 mi NE 17.3 mph 34.5 mph N/A Rain , Thunderstorm Thunderstorms and Rain
5:40 PM 68.0 °F 62.6 °F 83% - 1.3 mi NE 20.7 mph 34.5 mph N/A Rain , Thunderstorm Heavy Thunderstorms and Rain
6:00 PM 66.2 °F 62.6 °F 88% 30.09 in 1.1 mi NE 11.5 mph - N/A Rain , Thunderstorm Heavy Thunderstorms and Rain
6:10 PM 66.2 °F 60.8 °F 83% 30.09 in 6.2 mi ENE 8.1 mph - N/A Rain Light Rain
7:00 PM 68.0 °F 62.6 °F 83% 30.09 in 3.7 mi NW 3.5 mph - N/A Rain Light Rain
8:00 PM 68.0 °F 62.6 °F 83% 30.09 in 5.0 mi North 2.3 mph - N/A Rain Light Rain
9:00 PM 68.0 °F 62.6 °F 83% 30.12 in 5.0 mi East 5.8 mph - N/A Rain Light Rain
10:00 PM 67 °F 62 °F 80%  in 6 mi NE 3.5 mph - - Rain Light Rain
10:00 PM 68.0 °F 62.6 °F 83% 30.12 in 6.2 mi NE 3.5 mph - N/A Rain Light Rain
11:00 PM 68.0 °F 62.6 °F 83% 30.12 in 5.6 mi East 4.6 mph - N/A Rain Light Rain